Regional Weather Roundup
Issued by NWS

Home | Current Version | Previous Version | Graphics & Text | Print | Product List | Glossary Off
Versions: 1 2 3 4 5 6 7 8 9 10 11 12 13 14 15 16 17 18 19 20 21 22 23 24 25 26 27 28 29 30 31 32 33 34 35 36 37 38 39 40 41 42 43 44 45 46 47 48 49 50

000
ASUS43 KMKX 292000
RWRWI

WISCONSIN REGIONAL WEATHER ROUNDUP
NATIONAL WEATHER SERVICE MILWAUKEE/SULLIVAN WI
300 PM CDT FRI AUG 29 2014

NOTE: "FAIR" INDICATES FEW OR NO CLOUDS BELOW 12,000 FEET WITH NO
SIGNIFICANT WEATHER AND/OR OBSTRUCTIONS TO VISIBILITY.

WIZ001-002-006>008-014>016-023>028-292100-
NORTHWEST WISCONSIN

CITY           SKY/WX    TMP DP  RH WIND       PRES   REMARKS
SUPERIOR ARPT  CLOUDY    62  62  99 E5        29.77S
ASHLAND        LGT RAIN  67  65  93 CALM      29.79F FOG
HAYWARD        LGT RAIN  67  66  97 S7        29.80F
SIREN          LGT RAIN  69  68  97 CALM      29.77F
RICE LAKE      TSTM      70  67  92 NW8G18    29.80F VSB 3/4
LADYSMITH      CLOUDY    75  67  78 S6        29.83F
EAU CLAIRE     NOT AVBL
MENOMONIE      MOCLDY    84  70  62 S6        29.76F HX  88
NEW RICHMOND   LGT RAIN  69  67  93 NW3       29.80S
OSCEOLA        CLOUDY    69  67  94 CALM      29.81F
$$

WIZ003>005-009-010-017-018-292100-
NORTH CENTRAL WISCONSIN

CITY           SKY/WX    TMP DP  RH WIND       PRES   REMARKS
WOODRUFF       CLOUDY    69  65  86 S10       29.85F
RHINELANDER    CLOUDY    68  64  87 S9        29.86F
EAGLE RIVER    PTSUNNY   69  64  84 SE8       29.85F
LAND O LAKES   CLOUDY    70  64  81 S8        29.85F
PHILLIPS       CLOUDY    73  67  81 S13       29.82F
TOMAHAWK       CLOUDY    68  65  89 SE5       29.86F FOG
MEDFORD        CLOUDY    72  67  85 S10       29.84F
MERRILL        CLOUDY    68  67  96 S6        29.86F FOG
$$

WIZ029-030-035-036-043>047-292100-
CENTRAL WISCONSIN

CITY           SKY/WX    TMP DP  RH WIND       PRES   REMARKS
WAUSAU         CLOUDY    75  68  78 S7        29.83F
MOSINEE        PTSUNNY   75  70  83 S10       29.86F
MARSHFIELD     PTSUNNY   80  70  71 S13       29.83F HX  83
STEVENS POINT  MOSUNNY   76  68  76 S8        29.86F
WAUPACA        SUNNY     85  72  63 S8        29.84F HX  91
WAUTOMA        NOT AVBL
WISC RAPIDS    MOSUNNY   82  70  66 SW8       29.84F HX  86
CAMP DOUGLAS   NOT AVBL
$$

WIZ011>013-019>022-031-037>040-048>050-292100-
NORTHEAST WISCONSIN

CITY           SKY/WX    TMP DP  RH WIND       PRES   REMARKS
ANTIGO         CLOUDY    66  66  98 S8        29.88F FOG
STURGEON BAY   CLOUDY    72  66  83 S18       29.88F
GREEN BAY      MOSUNNY   83  72  69 SW13G23   29.84F HX  88
MANITOWOC      MOSUNNY   72  70  94 S21G26    29.88F
APPLETON       PTSUNNY   84  70  61 SW12G18   29.86F HX  88
CLINTONVILLE   PTSUNNY   79  68  69 S6        29.85F HX  81
OSHKOSH        SUNNY     84  73  69 S13G20    29.85F HX  90
$$

WIZ032>034-041-042-053>061-292100-
SOUTHWEST WISCONSIN

CITY           SKY/WX    TMP DP  RH WIND       PRES   REMARKS
LA CROSSE      MOSUNNY   85  71  63 S12       29.77F HX  90
SPARTA         MOSUNNY   83  68  59 S9        29.82F HX  86
VIROQUA        FAIR      83  70  64 S8G18     29.83F HX  87
BOSCOBEL       SUNNY     89  70  53 S8        29.80F HX  94
PRAIRIE DU CHI SUNNY     87  68  53 SE8       29.80F HX  90
PLATTEVILLE    FAIR      84  73  68 SE12      29.86F HX  90
$$

WIZ056-057-062-063-064-067-068-292100-
SOUTH CENTRAL WISCONSIN

CITY           SKY/WX    TMP DP  RH WIND       PRES   REMARKS
BARABOO/DELLS  MOSUNNY   86  68  55 S10       29.85F HX  89
LONE ROCK      NOT AVBL
WATERTOWN      MOSUNNY   82  71  68 S9G21     29.87F HX  86
MADISON        PTSUNNY   84  69  60 S15       29.85F HX  88
MIDDLETON      FAIR      85  70  59 S13G20    29.86F HX  90
MONROE         MOSUNNY   81  70  69 S14       29.88F HX  84
JANESVILLE     MOSUNNY   82  72  69 S8        29.87F HX  87
$$

WIZ051-052-058>065-066-070>072-292100-
SOUTHEAST WISCONSIN

CITY           SKY/WX    TMP DP  RH WIND       PRES   REMARKS
MILWAUKEE      PTSUNNY   80  72  76 SE10      29.89F HX  84
WAUKESHA       PTSUNNY   81  70  69 S9G16     29.91F HX  84
MILWAUKEE/TIMM MOSUNNY   84  70  61 S17       29.89F HX  88
RACINE         PTSUNNY   77  70  79 S12       29.92F
BURLINGTON     PTSUNNY   79  72  78 S7G16     29.90F HX  82
KENOSHA        PTSUNNY   83  72  69 S12       29.91F HX  88
FOND DU LAC    MOSUNNY   83  71  67 S14G21    29.86F HX  87
SHEBOYGAN      SUNNY     77  70  79 S13G20    29.88F
WEST BEND      SUNNY     82  68  61 S12G20    29.88F HX  85
JUNEAU         MOSUNNY   83  71  66 S18       29.89F HX  87
$$

LSZ147-162-292100-
LAKE SUPERIOR

STATION/POSITION TIME  TEMP    WIND        PRES    WAVE
                       AIR SEA DIR/SP/G            HT/PER
                 (UTC) (F)     (DEG/KT/KT) (MB)    (FT/S)
W MID LAKE BUOY  1850   59 58  100/  6/  6 1009.2F   1/ 3
DEVILS ISLAND    1900   61     120/  5/  6 1009.0F
PORT WING        1900   63      30/  8/  9 1008.5
SAXON HARBOR     1920   70     210/  4/ 16 1009.1R
$$

LMZ867-665-643>646-292100-
LAKE MICHIGAN

STATION/POSITION TIME  TEMP    WIND        PRES    WAVE
                       AIR SEA DIR/SP/G            HT/PER
                 (UTC) (F)     (DEG/KT/KT) (MB)    (FT/S)
N MID LAKE BUOY  1850   67 65  200/ 17/ 21 1012.3F   4/ 5
NORTHPORT PIER   1900   68     160/ 10/ 21 1012.5F
SISTER BAY       1811   70     190/ 22/ 27   N/A
KEWAUNEE LAKESHO 1900   67     170/ 14/ 17 1011.7F
SHEBOYGAN LAKESH 1900   68 70  170/ 15/ 16 1012.4F
ATWATER BUOY     1900   70     150/ 16/ 19 1013.7F
MILWAUKEE LAKESH 1900   70     150/ 13/ 16   N/A
S MID LAKE BUOY  1850   70 69  150/ 14/ 16 1014.3F   3/ 5
KENOSHA   LAKESH 1900   74     170/ 13/ 15 1012.9F
$$

TC  - TEMPERATURE IN CELSIUS
VSB - VISIBILITY IN STATUTE MILES
WCI - WIND CHILL INDEX
HX  - HEAT INDEX



USA.gov is the U.S. government's official web portal to all federal, state and local government web resources and services.